Temp
-10 -10 -10 -10 -10 -10 -10 -10 -11 -11 -10 -10 -9 -10 -11 -11 -11 -11 -11 -12 -12 -12 -12 -12 -12 -12 -12 -12 -12 -12 -12 -12 -12 -13 -13 -13 -13 -13 -13 -13 -13 -13 -13
-9 -10 -11 -11 -10 -10 -11 -11 -11 -11 -11 -10 -10 -11 -11 -11 -11 -12 -12 -12 -12 -12 -12 -12 -12 -12 -12 -12 -12 -12 -12 -12 -12 -13 -13 -13 -13 -13 -13 -13 -13 -13 -13
-9 -10 -11 -11 -10 -10 -11 -11 -11 -11 -11 -10 -11 -11 -11 -12 -12 -12 -12 -12 -12 -12 -12 -12 -12 -12 -12 -12 -12 -12 -12 -11 -13 -13 -13 -13 -13 -13 -13 -13 -13 -13 -13
-10 -9 -10 -10 -10 -10 -11 -12 -12 -11 -11 -10 -11 -12 -12 -12 -12 -11 -12 -12 -12 -12 -12 -12 -12 -12 -12 -12 -12 -12 -12 -11 -12 -13 -13 -13 -13 -13 -13 -13 -13 -13 -13
-10 -10 -10 -10 -10 -10 -11 -11 -11 -12 -11 -11 -12 -12 -12 -12 -12 -11 -12 -12 -12 -12 -12 -13 -12 -13 -13 -13 -13 -13 -12 -12 -12 -12 -13 -13 -13 -13 -13 -13 -13 -13 -13
-10 -10 -11 -10 -10 -11 -11 -11 -12 -13 -11 -12 -12 -12 -12 -12 -12 -12 -12 -12 -12 -12 -12 -13 -13 -13 -13 -13 -13 -13 -13 -12 -12 -13 -13 -12 -13 -13 -13 -13 -13 -13 -13
-10 -10 -10 -10 -10 -11 -11 -11 -13 -13 -12 -12 -12 -12 -12 -12 -12 -12 -12 -12 -12 -12 -13 -13 -13 -13 -13 -14 -13 -13 -13 -13 -12 -13 -13 -12 -12 -13 -13 -13 -13 -13 -13
-10 -10 -10 -9 -11 -11 -11 -12 -14 -14 -13 -13 -12 -12 -12 -12 -12 -12 -12 -12 -12 -13 -13 -13 -13 -14 -14 -14 -14 -14 -14 -13 -13 -13 -13 -13 -13 -13 -13 -13 -13 -13 -13
-10 -10 -10 -10 -10 -11 -12 -14 -15 -14 -13 -12 -12 -12 -12 -12 -12 -12 -12 -12 -13 -13 -13 -13 -13 -14 -14 -15 -15 -15 -14 -14 -13 -13 -13 -13 -13 -13 -13 -13 -13 -13 -14
-10 -10 -10 -11 -11 -12 -13 -14 -15 -16 -15 -13 -12 -12 -12 -12 -12 -13 -12 -13 -13 -13 -14 -14 -13 -14 -14 -15 -15 -15 -15 -14 -14 -13 -13 -13 -13 -13 -13 -13 -13 -13 -14
-10 -10 -10 -11 -12 -13 -13 -14 -15 -14 -14 -13 -13 -12 -13 -13 -13 -13 -13 -13 -13 -14 -14 -14 -14 -15 -14 -14 -14 -15 -15 -15 -14 -14 -13 -13 -13 -13 -13 -14 -14 -14 -14
-10 -11 -11 -12 -12 -14 -15 -15 -14 -14 -13 -13 -13 -13 -13 -13 -13 -13 -14 -14 -14 -15 -14 -15 -15 -14 -14 -14 -14 -15 -14 -14 -14 -14 -14 -14 -14 -14 -14 -14 -15 -15 -15
-11 -11 -13 -15 -14 -14 -13 -13 -13 -13 -13 -13 -13 -13 -13 -13 -14 -14 -14 -14 -15 -15 -14 -14 -14 -14 -14 -14 -14 -14 -15 -15 -14 -15 -14 -14 -14 -15 -15 -15 -15 -15 -16
-12 -13 -14 -13 -13 -13 -13 -13 -13 -13 -13 -13 -13 -13 -14 -13 -13 -14 -14 -14 -15 -15 -14 -14 -14 -14 -14 -14 -14 -15 -15 -16 -16 -16 -16 -15 -15 -15 -16 -16 -16 -16 -16
-13 -13 -13 -13 -13 -13 -13 -14 -14 -14 -13 -14 -14 -14 -14 -14 -14 -14 -15 -15 -15 -14 -14 -15 -15 -16 -15 -15 -15 -15 -15 -15 -16 -16 -17 -16 -16 -16 -16 -17 -17 -17 -17
-12 -13 -13 -13 -13 -13 -14 -14 -14 -14 -14 -14 -14 -13 -14 -14 -14 -15 -15 -15 -15 -16 -16 -16 -16 -16 -16 -16 -16 -16 -16 -16 -17 -17 -17 -17 -17 -17 -17 -17 -17 -17 -18
-14 -14 -14 -14 -14 -14 -14 -14 -14 -14 -14 -14 -14 -14 -14 -14 -15 -15 -15 -15 -15 -15 -16 -16 -16 -16 -16 -17 -17 -17 -17 -17 -17 -17 -17 -17 -17 -17 -17 -17 -17 -18 -18
-14 -14 -14 -14 -14 -14 -14 -14 -14 -14 -15 -15 -15 -15 -14 -14 -14 -14 -15 -15 -15 -15 -16 -16 -17 -17 -17 -17 -17 -18 -18 -18 -18 -18 -18 -18 -17 -17 -17 -17 -17 -17 -17
-14 -14 -14 -14 -14 -14 -14 -14 -14 -15 -15 -15 -14 -14 -14 -14 -14 -15 -14 -15 -15 -15 -15 -16 -17 -17 -17 -18 -18 -18 -18 -18 -18 -18 -18 -18 -18 -18 -18 -18 -17 -17 -17
-14 -14 -13 -14 -15 -15 -15 -15 -15 -14 -14 -14 -14 -14 -14 -14 -14 -14 -15 -15 -15 -15 -16 -16 -17 -17 -18 -18 -18 -18 -19 -19 -19 -19 -19 -19 -19 -19 -19 -18 -18 -18 -18
-15 -15 -14 -15 -14 -14 -14 -14 -14 -14 -14 -14 -14 -14 -14 -14 -14 -14 -15 -15 -16 -16 -16 -16 -17 -17 -17 -18 -18 -18 -19 -19 -19 -19 -19 -19 -19 -19 -18 -18 -18 -18 -18
-14 -14 -14 -14 -14 -14 -14 -14 -14 -14 -14 -14 -14 -14 -14 -14 -15 -15 -15 -15 -16 -16 -16 -16 -17 -17 -18 -19 -18 -19 -18 -19 -19 -19 -19 -19 -19 -19 -19 -19 -19 -19 -19
-14 -14 -14 -14 -14 -14 -14 -14 -14 -14 -14 -14 -14 -14 -14 -15 -15 -15 -15 -16 -16 -16 -17 -17 -17 -18 -18 -19 -19 -18 -18 -18 -18 -18 -19 -19 -19 -19 -19 -20 -20 -20 -20
-14 -14 -14 -14 -14 -14 -14 -14 -14 -14 -14 -15 -15 -15 -15 -15 -15 -16 -16 -16 -17 -17 -17 -18 -18 -18 -18 -19 -18 -18 -18 -18 -18 -18 -18 -19 -19 -20 -21 -22 -22 -22 -22
-14 -14 -14 -14 -14 -14 -14 -15 -14 -15 -15 -15 -15 -15 -15 -15 -15 -16 -16 -17 -18 -18 -18 -18 -18 -18 -19 -19 -19 -19 -19 -19 -19 -19 -19 -19 -20 -21 -22 -23 -23 -24 -25
-14 -14 -14 -14 -15 -15 -14 -15 -15 -15 -15 -15 -15 -15 -15 -16 -16 -16 -17 -17 -17 -17 -17 -18 -18 -18 -19 -19 -20 -20 -20 -20 -20 -20 -20 -21 -21 -22 -23 -24 -25 -26 -28
Height
5857 5858 5859 5859 5858 5858 5858 5858 5858 5858 5858 5857 5857 5856 5854 5854 5854 5855 5855 5854 5854 5853 5852 5850 5849 5848 5847 5846 5844 5843 5841 5840 5839 5838 5835 5834 5834 5832 5831 5830 5830 5829 5828
5848 5848 5851 5853 5853 5854 5855 5854 5854 5854 5855 5856 5855 5854 5853 5853 5854 5854 5853 5854 5854 5852 5851 5850 5849 5848 5846 5845 5843 5840 5839 5838 5836 5835 5833 5832 5828 5829 5828 5828 5828 5827 5826
5842 5841 5843 5846 5847 5848 5849 5850 5851 5852 5852 5853 5852 5852 5853 5853 5852 5851 5851 5851 5851 5850 5849 5848 5847 5845 5844 5843 5841 5839 5837 5837 5836 5833 5831 5829 5827 5826 5824 5825 5825 5824 5824
5840 5840 5838 5841 5842 5842 5844 5845 5846 5847 5849 5849 5848 5850 5851 5851 5850 5850 5849 5849 5848 5848 5847 5846 5845 5844 5843 5840 5838 5836 5834 5834 5834 5832 5829 5827 5824 5823 5821 5821 5821 5820 5820
5833 5835 5833 5835 5835 5836 5837 5838 5840 5843 5845 5845 5846 5847 5848 5848 5848 5848 5847 5846 5845 5845 5844 5843 5842 5841 5840 5838 5836 5833 5832 5831 5830 5829 5827 5822 5822 5821 5820 5817 5817 5816 5816
5830 5827 5826 5827 5828 5829 5833 5834 5836 5839 5840 5841 5842 5844 5845 5845 5846 5845 5845 5844 5843 5842 5842 5841 5839 5837 5836 5834 5832 5831 5829 5829 5827 5825 5824 5820 5819 5818 5817 5815 5814 5812 5811
5825 5823 5822 5822 5822 5826 5828 5829 5831 5834 5837 5838 5839 5842 5842 5843 5843 5843 5842 5841 5840 5840 5838 5837 5836 5833 5832 5830 5829 5829 5827 5825 5823 5822 5821 5818 5816 5814 5812 5811 5810 5808 5807
5821 5817 5814 5814 5816 5820 5824 5824 5826 5831 5833 5835 5838 5840 5840 5841 5841 5841 5839 5838 5837 5836 5834 5833 5832 5831 5829 5827 5826 5825 5822 5818 5819 5820 5817 5814 5813 5810 5807 5805 5805 5804 5802
5820 5817 5813 5810 5810 5815 5815 5818 5822 5827 5831 5833 5837 5838 5839 5839 5839 5836 5837 5836 5835 5833 5830 5829 5828 5825 5824 5823 5822 5820 5818 5813 5813 5813 5812 5809 5807 5804 5803 5801 5799 5798 5796
5816 5818 5809 5808 5808 5809 5810 5814 5819 5825 5828 5832 5835 5837 5838 5837 5836 5836 5836 5835 5832 5829 5828 5826 5823 5820 5818 5817 5817 5815 5812 5810 5807 5807 5805 5803 5799 5798 5795 5794 5792 5790 5789
5811 5812 5804 5802 5806 5809 5811 5814 5821 5826 5830 5833 5835 5835 5833 5833 5833 5832 5832 5829 5826 5826 5824 5820 5818 5817 5813 5812 5810 5810 5808 5804 5802 5799 5798 5795 5792 5787 5786 5785 5783 5783 5782
5809 5808 5804 5804 5807 5809 5812 5817 5823 5825 5827 5830 5830 5831 5831 5830 5829 5828 5826 5825 5823 5821 5817 5813 5813 5812 5809 5806 5804 5803 5801 5799 5795 5792 5790 5787 5784 5781 5776 5777 5776 5775 5774
5801 5801 5801 5803 5808 5811 5814 5819 5822 5824 5827 5828 5828 5829 5828 5827 5825 5823 5820 5819 5818 5815 5812 5810 5808 5806 5803 5799 5796 5793 5790 5788 5785 5781 5779 5776 5774 5771 5769 5767 5766 5766 5765
5796 5800 5805 5807 5808 5812 5815 5820 5822 5823 5824 5824 5824 5823 5822 5820 5819 5817 5815 5814 5810 5808 5807 5805 5802 5800 5797 5793 5789 5786 5784 5781 5778 5773 5768 5766 5763 5762 5759 5760 5758 5756 5755
5800 5803 5806 5808 5811 5814 5817 5819 5819 5819 5820 5820 5819 5818 5816 5814 5814 5809 5807 5806 5803 5802 5801 5797 5794 5791 5787 5785 5780 5777 5772 5770 5768 5764 5759 5757 5755 5755 5751 5752 5750 5749 5747
5804 5805 5807 5811 5813 5815 5815 5815 5817 5816 5815 5815 5813 5812 5810 5809 5806 5802 5800 5796 5794 5792 5790 5788 5786 5783 5780 5775 5771 5766 5763 5761 5756 5754 5752 5747 5748 5746 5744 5744 5743 5741 5739
5802 5805 5807 5810 5812 5812 5812 5813 5812 5811 5810 5811 5810 5807 5806 5803 5800 5797 5793 5791 5789 5787 5784 5782 5777 5774 5770 5767 5763 5759 5757 5753 5749 5746 5742 5740 5737 5737 5736 5736 5734 5733 5730
5801 5805 5807 5808 5810 5809 5808 5807 5807 5807 5807 5804 5802 5800 5798 5796 5793 5790 5788 5786 5782 5780 5777 5773 5769 5764 5761 5758 5754 5751 5748 5745 5741 5737 5734 5731 5727 5726 5725 5724 5722 5720 5719
5804 5805 5804 5805 5806 5805 5805 5805 5803 5802 5799 5797 5797 5794 5792 5790 5788 5785 5781 5777 5775 5773 5769 5765 5760 5756 5752 5748 5745 5742 5738 5734 5730 5726 5723 5719 5715 5712 5710 5708 5706 5705 5704
5800 5800 5800 5801 5803 5803 5803 5801 5798 5797 5796 5793 5790 5788 5786 5784 5782 5778 5774 5770 5767 5763 5758 5754 5750 5745 5742 5738 5734 5730 5726 5722 5718 5712 5710 5706 5701 5698 5694 5691 5689 5686 5685
5800 5799 5798 5798 5798 5798 5797 5796 5794 5794 5791 5789 5786 5785 5780 5777 5774 5770 5766 5762 5758 5754 5749 5745 5741 5736 5731 5725 5721 5717 5712 5709 5704 5699 5695 5691 5686 5681 5676 5672 5670 5668 5664
5798 5797 5796 5795 5793 5792 5792 5791 5791 5789 5787 5784 5781 5778 5774 5770 5766 5761 5757 5752 5748 5743 5738 5733 5728 5722 5716 5710 5706 5703 5701 5700 5693 5686 5680 5674 5668 5662 5654 5648 5643 5641 5637
5793 5793 5792 5791 5791 5791 5790 5788 5786 5785 5783 5779 5775 5771 5766 5761 5757 5753 5749 5744 5739 5732 5726 5720 5714 5708 5703 5698 5693 5689 5685 5681 5677 5673 5666 5658 5651 5643 5634 5626 5618 5612 5607
5789 5788 5788 5787 5786 5786 5786 5784 5782 5780 5775 5772 5768 5763 5759 5755 5750 5744 5739 5733 5727 5720 5713 5707 5703 5698 5692 5686 5680 5674 5668 5662 5657 5654 5649 5642 5632 5622 5611 5600 5590 5582 5574
5786 5785 5786 5785 5785 5783 5781 5779 5775 5771 5768 5764 5760 5756 5751 5745 5740 5734 5727 5721 5715 5709 5703 5697 5691 5684 5677 5670 5662 5656 5649 5643 5634 5628 5624 5614 5605 5591 5581 5568 5555 5547 5539
5785 5784 5784 5782 5780 5777 5775 5770 5765 5762 5757 5752 5747 5742 5736 5729 5722 5718 5713 5708 5701 5694 5687 5679 5672 5664 5658 5652 5643 5635 5627 5618 5608 5598 5590 5584 5576 5566 5551 5538 5528 5519 5512
Wind_Speed
38 34 38 41 39 38 34 30 31 28 23 20 19 13 8 11 11 9 6 4 2 2 3 5 7 8 9 10 11 12 13 14 14 14 14 14 13 12 10 12 11 11 12
36 39 37 39 37 33 31 31 31 28 23 19 18 11 11 12 10 8 4 3 3 4 6 8 10 11 11 11 11 12 13 14 14 13 13 13 14 11 12 13 14 14 14
43 36 34 37 31 33 33 33 32 29 27 19 14 13 14 13 9 6 4 4 6 7 8 9 10 12 12 11 12 12 13 14 13 11 11 10 13 14 13 13 14 16 16
33 42 23 33 38 35 34 34 31 29 25 18 12 17 16 11 8 6 6 6 7 9 11 12 12 13 13 13 12 13 13 14 11 9 11 12 10 13 14 14 14 15 16
37 39 40 45 46 40 36 32 32 26 18 15 14 18 15 10 8 9 9 8 10 11 13 14 15 15 15 14 13 13 14 13 15 13 12 15 14 12 13 14 15 14 17
38 37 44 47 49 36 37 34 29 16 17 13 16 18 14 10 9 9 9 11 13 15 15 16 17 18 17 17 16 16 16 16 18 18 13 18 18 16 17 18 19 19 18
30 41 47 45 44 32 37 32 17 15 13 13 18 17 12 10 10 11 12 15 16 18 18 19 20 20 19 18 18 18 19 20 21 21 20 20 21 22 21 21 22 22 23
19 36 32 39 32 36 39 34 15 14 12 15 16 15 12 11 11 14 17 19 19 21 23 23 23 22 22 21 21 23 23 24 23 24 24 25 25 25 26 26 25 26 26
16 30 27 38 38 41 35 22 13 9 10 12 14 13 11 12 16 18 22 22 23 25 26 26 26 23 23 24 25 25 23 27 24 21 21 26 29 28 29 29 29 30 29
21 26 36 42 42 39 24 20 16 12 12 15 8 9 12 16 20 22 24 25 27 28 29 30 28 24 25 25 24 20 20 24 31 30 30 32 34 33 33 34 34 33 32
17 28 34 34 17 11 12 13 12 9 8 7 10 14 17 19 21 23 27 28 28 30 32 33 28 27 25 20 24 24 30 34 37 37 37 38 36 40 39 36 36 35 33
20 26 19 17 14 14 17 16 15 15 14 13 13 13 17 20 23 26 27 28 31 21 26 23 24 27 26 25 30 34 39 30 34 37 40 39 39 40 41 41 38 38 37
31 7 17 21 19 15 13 13 13 10 10 10 12 15 18 19 25 26 28 30 26 17 28 25 24 32 33 34 38 39 40 41 39 39 41 42 42 43 43 44 42 41 38
16 13 15 13 13 13 11 8 5 7 10 11 14 15 19 22 23 26 27 29 28 28 33 32 37 29 35 38 37 37 40 41 43 44 45 45 43 44 41 44 42 44 42
13 14 13 10 7 4 5 5 7 9 11 15 17 19 20 23 27 36 24 35 25 26 36 33 34 35 35 38 42 45 48 48 45 45 46 47 45 43 41 40 38 39 40
12 10 7 5 5 6 4 7 10 14 16 16 18 21 24 27 35 25 38 36 33 31 28 33 35 37 40 41 43 43 43 44 43 42 42 44 42 41 40 39 39 40 40
7 4 3 2 3 5 7 10 11 18 17 23 22 22 28 34 33 35 34 34 32 32 31 34 35 34 35 37 38 40 40 41 42 43 43 43 44 45 44 44 44 44 45
3 1 2 6 6 8 11 14 17 20 23 22 27 28 28 28 28 30 30 29 31 32 34 35 36 36 37 38 38 39 41 42 42 44 45 47 49 51 51 51 51 51 50
2 3 7 6 8 10 14 19 21 23 24 24 25 23 23 24 24 25 28 30 32 34 36 38 38 39 41 41 41 43 43 43 44 46 47 48 50 52 53 53 54 54 54
2 7 10 10 11 14 17 20 20 21 20 20 22 25 27 28 30 32 32 34 37 39 42 43 44 44 45 45 46 46 45 46 47 50 50 52 55 56 58 59 61 62 63
5 10 15 17 16 17 16 18 15 16 19 22 25 28 30 32 34 36 36 38 39 42 44 46 48 48 49 51 52 50 50 50 51 52 53 55 57 60 64 66 68 69 72
12 14 14 13 16 16 14 14 17 20 23 26 28 30 33 36 38 40 42 44 45 47 48 50 51 52 53 54 55 54 52 49 52 55 58 62 65 68 72 76 78 79 81
15 12 12 11 9 10 13 17 21 23 25 28 31 34 38 41 42 45 46 47 48 50 52 53 54 55 56 56 56 56 55 56 57 60 64 69 73 77 80 83 86 88 88
17 10 9 11 13 16 17 21 24 26 30 33 37 40 43 45 46 49 49 50 51 53 54 55 56 56 56 57 57 58 61 64 67 69 72 75 79 81 83 85 86 86 87
13 11 12 13 17 21 23 27 30 33 37 41 44 46 48 50 51 52 53 53 52 53 55 57 58 58 57 57 61 64 68 72 77 80 82 85 87 89 90 89 85 80 75
12 14 15 19 23 26 28 32 36 40 44 47 50 51 54 55 56 57 58 58 58 59 61 62 63 62 61 63 68 72 77 82 86 90 91 92 94 95 88 81 76 72 65
Wind_Direction
255 249 260 263 267 270 270 272 276 279 290 301 300 289 234 193 194 207 213 218 235 300 323 331 335 341 343 345 347 345 345 338 333 324 315 310 307 309 321 322 320 327 334
263 242 244 254 266 267 264 268 271 276 285 293 291 257 216 201 207 213 220 244 284 312 327 333 342 342 344 343 342 342 341 342 345 340 323 306 300 309 308 308 311 310 309
278 234 234 246 261 266 261 262 266 271 277 281 268 225 217 215 214 224 237 267 294 310 315 330 336 341 333 325 326 329 334 342 345 341 326 314 311 311 305 301 295 300 302
270 271 265 271 275 266 254 253 256 265 271 268 242 212 217 220 231 245 258 279 299 309 313 323 331 328 328 324 315 313 320 335 333 322 324 325 321 313 310 301 299 299 295
274 273 274 272 271 266 242 233 254 259 261 258 231 208 217 229 245 252 268 296 311 320 328 327 319 320 324 320 316 311 308 319 322 325 325 306 307 304 303 304 300 295 294
270 277 272 271 270 251 237 244 251 248 251 242 210 207 219 234 252 263 287 305 312 319 326 323 321 322 319 318 311 304 303 312 307 315 322 303 307 298 291 292 289 288 285
278 271 259 263 260 254 230 239 243 246 246 219 200 209 224 248 260 283 296 298 307 314 315 318 318 319 317 320 316 309 306 310 306 310 310 308 310 307 300 293 288 286 284
263 252 237 245 228 226 243 237 223 234 233 203 199 215 233 253 279 287 291 297 305 309 314 316 313 316 317 311 308 305 303 299 300 306 307 302 299 301 303 299 292 288 283
264 199 249 217 219 226 213 209 202 201 198 188 209 225 255 282 281 294 286 301 306 307 308 308 307 314 315 311 309 306 306 297 295 306 314 310 305 299 295 291 294 289 285
257 246 237 227 210 210 198 205 205 173 171 198 219 253 266 281 276 289 300 305 307 306 306 301 304 309 307 308 305 297 315 302 303 312 311 306 303 298 292 287 285 283 281
249 237 206 196 189 221 213 156 138 165 154 200 235 252 262 278 293 302 304 303 299 303 299 295 305 310 308 327 316 289 295 304 299 304 303 299 298 295 294 288 284 282 279
236 189 194 188 182 114 102 115 151 177 209 228 253 281 295 305 304 304 303 308 307 305 329 314 303 307 291 296 304 305 308 292 287 292 294 294 293 291 291 288 286 285 282
181 189 93 94 108 129 142 170 190 210 247 274 292 302 304 307 309 306 310 310 309 318 326 322 320 311 290 293 292 294 303 298 287 290 290 290 291 290 291 289 288 284 280
166 119 103 124 128 142 163 188 229 275 282 291 294 310 320 310 308 307 301 306 308 296 321 315 317 299 287 286 291 293 296 292 290 294 290 288 290 289 290 288 288 285 283
120 128 136 139 134 152 219 255 257 274 298 308 313 300 316 322 308 315 305 319 319 296 299 308 304 304 297 295 294 293 296 297 298 295 292 292 291 290 289 287 285 282 281
142 148 156 184 209 220 256 277 297 298 303 320 311 309 295 305 311 312 317 319 317 311 304 305 301 299 297 298 298 298 296 297 298 295 292 289 290 287 286 287 285 283 282
119 127 123 212 258 291 300 301 301 314 302 307 308 311 300 306 304 304 311 310 313 312 312 305 302 303 301 296 297 295 295 296 294 293 289 287 285 283 283 282 279 275 273
68 40 262 262 289 286 289 304 306 308 302 304 307 305 305 308 310 308 310 313 318 319 313 311 308 306 303 300 297 296 292 289 287 284 283 283 282 281 278 275 274 272 271
180 241 260 275 304 294 298 306 305 306 305 309 308 313 321 322 323 316 320 322 319 316 314 313 312 308 307 305 300 295 294 293 290 289 288 288 286 284 284 282 280 278 274
291 283 289 306 302 297 297 299 302 303 306 317 324 327 324 324 320 319 319 318 317 317 316 314 312 310 308 306 303 303 300 297 295 292 292 289 289 288 287 286 286 285 282
292 291 303 305 293 294 299 305 313 317 326 325 322 322 319 318 318 318 317 314 314 312 313 313 308 306 308 307 306 305 301 299 297 296 294 292 291 291 290 289 287 284 282
301 297 291 288 297 309 314 320 320 321 322 319 318 315 315 317 318 317 316 314 312 310 309 309 310 309 308 307 305 303 299 297 296 296 296 296 296 296 296 295 292 290 287
303 305 302 294 293 301 314 315 316 316 313 311 314 314 315 316 315 313 313 311 310 309 308 308 309 309 307 305 302 300 298 296 295 295 296 298 296 295 295 295 293 291 289
309 315 303 311 314 310 309 306 304 310 310 310 311 311 311 309 310 310 311 311 308 309 309 308 306 303 302 300 299 300 301 300 299 297 297 297 298 297 297 297 295 291 288
302 305 297 295 294 298 304 302 307 308 309 309 308 308 309 309 308 309 311 310 308 306 304 303 303 304 303 303 304 305 306 306 306 304 304 305 304 304 303 300 296 293 289
280 284 290 297 300 301 305 308 308 308 308 310 311 311 312 313 313 310 309 308 308 307 307 308 309 308 308 310 310 310 310 310 310 310 309 308 307 306 304 300 296 292 287